Location: Sihaung
(22.8641°N, 94.0549°E)
Time: 11:08:53
(UTC+00:00)

CZ-4B R/B - Pass Details

Date: 03 March 2021
Orbit: 496 x 646 km, 97.8° (Epoch: 16 April)

Event Time Altitude Azimuth Distance (km) Brightness Sun altitude
Rises 22:32:45 0° 8° (N) 2,604 7.4 -21.6°
Reaches altitude 10° 22:34:51 10° 6° (N) 1,706 6.4 -21.1°
Maximum altitude 22:38:29 71° 283° (WNW) 525 3.4 -20.2°
Enters shadow 22:38:57 61° 230° (SW) 564 3.5 -20.1°
